Time,TemperatureF,DewpointF,PressureIn,WindDirection,WindDirectionDegrees,WindSpeedMPH,WindSpeedGustMPH,Humidity,HourlyPrecipIn,Conditions,Clouds,dailyrainin,SoftwareType,DateUTC
2013-03-08 00:00:00,49.9,17.3,17.22,NE,41,2.0,4.0,27,0.43,,,0.28,VWS V14.01,2013-03-08 08:00:00,
2013-03-08 00:01:00,50.1,19.1,17.22,SSW,195,2.0,7.0,29,0.31,,,0.01,VWS V14.01,2013-03-08 08:01:00,
2013-03-08 00:06:00,50.0,19.0,17.22,East,97,6.0,16.0,29,0.36,,,0.06,VWS V14.01,2013-03-08 08:06:00,
2013-03-08 00:11:00,50.1,19.1,17.22,East,98,1.0,16.0,29,0.39,,,0.09,VWS V14.01,2013-03-08 08:11:00,
2013-03-08 00:16:00,50.1,19.1,17.22,East,88,0.0,16.0,29,0.42,,,0.12,VWS V14.01,2013-03-08 08:16:00,
2013-03-08 00:21:00,50.1,19.1,17.22,East,87,0.0,16.0,29,0.43,,,0.13,VWS V14.01,2013-03-08 08:21:00,
2013-03-08 00:26:00,49.9,18.9,17.22,NE,53,2.0,16.0,29,0.45,,,0.15,VWS V14.01,2013-03-08 08:26:00,
2013-03-08 00:30:00,48.5,16.1,17.22,WNW,287,10.0,12.0,27,0.30,,,0.30,VWS V14.01,2013-03-08 08:30:00,
2013-03-08 00:31:00,50.0,19.0,17.22,NE,44,0.0,2.0,29,0.33,,,0.18,VWS V14.01,2013-03-08 08:31:00,
2013-03-08 00:36:00,50.0,19.0,17.22,NE,43,0.0,2.0,29,0.36,,,0.21,VWS V14.01,2013-03-08 08:36:00,
2013-03-08 00:41:00,50.0,19.0,17.22,NE,43,2.0,3.0,29,0.39,,,0.24,VWS V14.01,2013-03-08 08:41:00,
2013-03-08 00:46:00,50.0,18.2,17.22,NE,43,0.0,3.0,28,0.41,,,0.26,VWS V14.01,2013-03-08 08:46:00,
2013-03-08 00:51:00,50.0,17.4,17.22,NE,42,0.0,4.0,27,0.42,,,0.27,VWS V14.01,2013-03-08 08:51:00,
2013-03-08 00:56:00,49.9,17.3,17.22,NE,42,3.0,4.0,27,0.43,,,0.28,VWS V14.01,2013-03-08 08:56:00,
2013-03-08 01:00:00,47.0,18.7,17.22,NNW,330,5.0,12.0,32,0.17,,,0.33,VWS V14.01,2013-03-08 09:00:00,
2013-03-08 01:01:00,49.8,17.2,17.22,NE,40,3.0,4.0,27,0.29,,,0.29,VWS V14.01,2013-03-08 09:01:00,
2013-03-08 01:06:00,49.8,17.2,17.22,NE,40,1.0,4.0,27,0.29,,,0.29,VWS V14.01,2013-03-08 09:06:00,
2013-03-08 01:11:00,49.6,16.1,17.22,NE,40,0.0,4.0,26,0.29,,,0.29,VWS V14.01,2013-03-08 09:11:00,
2013-03-08 01:16:00,49.6,16.1,17.22,NE,40,1.0,4.0,26,0.29,,,0.29,VWS V14.01,2013-03-08 09:16:00,
2013-03-08 01:21:00,49.4,16.0,17.22,NE,40,2.0,4.0,26,0.29,,,0.29,VWS V14.01,2013-03-08 09:21:00,
2013-03-08 01:26:00,49.1,15.7,17.22,NNW,338,4.0,11.0,26,0.30,,,0.30,VWS V14.01,2013-03-08 09:26:00,
2013-03-08 01:30:00,46.7,21.8,17.22,WNW,296,3.0,11.0,37,0.06,,,0.34,VWS V14.01,2013-03-08 09:30:00,
2013-03-08 01:31:00,48.1,15.7,17.22,WNW,296,5.0,11.0,27,0.14,,,0.30,VWS V14.01,2013-03-08 09:31:00,
2013-03-08 01:36:00,47.6,16.1,17.22,NW,305,6.0,12.0,28,0.15,,,0.31,VWS V14.01,2013-03-08 09:36:00,
2013-03-08 01:41:00,47.6,16.1,17.22,NW,318,7.0,12.0,28,0.15,,,0.31,VWS V14.01,2013-03-08 09:41:00,
2013-03-08 01:46:00,47.5,16.8,17.22,NW,304,4.0,12.0,29,0.15,,,0.31,VWS V14.01,2013-03-08 09:46:00,
2013-03-08 01:51:00,47.4,17.5,17.22,NNW,342,7.0,12.0,30,0.16,,,0.32,VWS V14.01,2013-03-08 09:51:00,
2013-03-08 01:56:00,47.1,18.0,17.22,NNW,343,5.0,12.0,31,0.17,,,0.33,VWS V14.01,2013-03-08 09:56:00,
2013-03-08 02:00:00,46.7,25.4,17.22,West,271,0.0,6.0,43,0.04,,,0.34,VWS V14.01,2013-03-08 10:00:00,
2013-03-08 02:01:00,46.9,18.6,17.22,NNW,336,6.0,7.0,32,0.05,,,0.33,VWS V14.01,2013-03-08 10:01:00,
2013-03-08 02:06:00,46.8,19.2,17.22,North,360,9.0,9.0,33,0.05,,,0.33,VWS V14.01,2013-03-08 10:06:00,
2013-03-08 02:11:00,46.5,19.7,17.22,NNE,21,4.0,11.0,34,0.06,,,0.34,VWS V14.01,2013-03-08 10:11:00,
2013-03-08 02:16:00,46.5,20.3,17.22,North,9,4.0,11.0,35,0.06,,,0.34,VWS V14.01,2013-03-08 10:16:00,
2013-03-08 02:21:00,46.6,21.1,17.22,NNE,22,0.0,11.0,36,0.06,,,0.34,VWS V14.01,2013-03-08 10:21:00,
2013-03-08 02:26:00,46.7,21.8,17.22,North,355,4.0,11.0,37,0.06,,,0.34,VWS V14.01,2013-03-08 10:26:00,
2013-03-08 02:30:00,47.0,24.0,17.22,West,271,0.0,2.0,40,0.01,,,0.34,VWS V14.01,2013-03-08 10:30:00,
2013-03-08 02:31:00,46.8,22.5,17.22,WNW,295,0.0,5.0,38,0.04,,,0.34,VWS V14.01,2013-03-08 10:31:00,
2013-03-08 02:36:00,46.9,22.6,17.22,NNW,327,1.0,6.0,38,0.04,,,0.34,VWS V14.01,2013-03-08 10:36:00,
2013-03-08 02:41:00,47.0,24.0,17.22,NW,325,0.0,6.0,40,0.04,,,0.34,VWS V14.01,2013-03-08 10:41:00,
2013-03-08 02:46:00,46.9,24.5,17.22,West,271,0.0,6.0,41,0.04,,,0.34,VWS V14.01,2013-03-08 10:46:00,
2013-03-08 02:51:00,46.8,24.9,17.22,West,271,0.0,6.0,42,0.04,,,0.34,VWS V14.01,2013-03-08 10:51:00,
2013-03-08 02:56:00,46.7,25.4,17.22,West,271,0.0,6.0,43,0.04,,,0.34,VWS V14.01,2013-03-08 10:56:00,
2013-03-08 03:00:00,47.2,21.0,17.22,West,260,2.0,3.0,35,0.00,,,0.34,VWS V14.01,2013-03-08 11:00:00,
2013-03-08 03:01:00,46.7,25.4,17.22,West,271,0.0,0.0,43,0.01,,,0.34,VWS V14.01,2013-03-08 11:01:00,
2013-03-08 03:06:00,46.7,24.8,17.22,West,271,0.0,1.0,42,0.01,,,0.34,VWS V14.01,2013-03-08 11:06:00,
2013-03-08 03:11:00,46.7,25.4,17.22,West,271,0.0,1.0,43,0.01,,,0.34,VWS V14.01,2013-03-08 11:11:00,
2013-03-08 03:16:00,46.7,24.8,17.22,West,271,0.0,1.0,42,0.01,,,0.34,VWS V14.01,2013-03-08 11:16:00,
2013-03-08 03:21:00,46.9,25.0,17.22,West,271,0.0,1.0,42,0.01,,,0.34,VWS V14.01,2013-03-08 11:21:00,
2013-03-08 03:26:00,46.9,23.9,17.22,West,271,0.0,1.0,40,0.01,,,0.34,VWS V14.01,2013-03-08 11:26:00,
2013-03-08 03:30:00,47.2,20.3,17.22,West,268,0.0,4.0,34,0.00,,,0.34,VWS V14.01,2013-03-08 11:30:00,
2013-03-08 03:31:00,47.0,23.3,17.22,West,271,0.0,0.0,39,0.00,,,0.34,VWS V14.01,2013-03-08 11:31:00,
2013-03-08 03:36:00,47.0,22.7,17.22,West,271,0.0,0.0,38,0.00,,,0.34,VWS V14.01,2013-03-08 11:36:00,
2013-03-08 03:41:00,47.2,22.3,17.22,West,271,0.0,0.0,37,0.00,,,0.34,VWS V14.01,2013-03-08 11:41:00,
2013-03-08 03:46:00,47.3,21.7,17.22,West,271,2.0,2.0,36,0.00,,,0.34,VWS V14.01,2013-03-08 11:46:00,
2013-03-08 03:51:00,47.3,21.7,17.22,West,260,1.0,3.0,36,0.00,,,0.34,VWS V14.01,2013-03-08 11:51:00,
2013-03-08 03:56:00,47.1,21.5,17.22,West,260,0.0,3.0,36,0.00,,,0.34,VWS V14.01,2013-03-08 11:56:00,
2013-03-08 04:00:00,47.2,19.6,17.22,West,268,0.0,2.0,33,0.00,,,0.34,VWS V14.01,2013-03-08 12:00:00,
2013-03-08 04:01:00,47.2,21.0,17.22,West,260,1.0,2.0,35,0.00,,,0.34,VWS V14.01,2013-03-08 12:01:00,
2013-03-08 04:06:00,47.3,21.0,17.22,West,260,0.0,2.0,35,0.00,,,0.34,VWS V14.01,2013-03-08 12:06:00,
2013-03-08 04:11:00,47.3,21.0,17.22,West,260,1.0,2.0,35,0.00,,,0.34,VWS V14.01,2013-03-08 12:11:00,
2013-03-08 04:16:00,47.3,21.0,17.22,West,260,0.0,2.0,35,0.00,,,0.34,VWS V14.01,2013-03-08 12:16:00,
2013-03-08 04:21:00,47.3,20.4,17.22,West,260,1.0,3.0,34,0.00,,,0.34,VWS V14.01,2013-03-08 12:21:00,
2013-03-08 04:26:00,47.3,20.4,17.22,West,268,2.0,4.0,34,0.00,,,0.34,VWS V14.01,2013-03-08 12:26:00,
2013-03-08 04:30:00,46.5,17.5,17.22,West,268,0.0,1.0,31,0.00,,,0.34,VWS V14.01,2013-03-08 12:30:00,
2013-03-08 04:31:00,47.2,20.3,17.22,West,268,0.0,0.0,34,0.00,,,0.34,VWS V14.01,2013-03-08 12:31:00,
2013-03-08 04:36:00,47.1,20.2,17.22,West,268,0.0,0.0,34,0.00,,,0.34,VWS V14.01,2013-03-08 12:36:00,
2013-03-08 04:41:00,47.1,20.2,17.22,West,268,0.0,2.0,34,0.00,,,0.34,VWS V14.01,2013-03-08 12:41:00,
2013-03-08 04:46:00,47.2,20.3,17.22,West,268,0.0,2.0,34,0.00,,,0.34,VWS V14.01,2013-03-08 12:46:00,
2013-03-08 04:51:00,47.2,19.6,17.22,West,269,0.0,2.0,33,0.00,,,0.34,VWS V14.01,2013-03-08 12:51:00,
2013-03-08 04:56:00,47.2,19.6,17.22,West,268,0.0,2.0,33,0.00,,,0.34,VWS V14.01,2013-03-08 12:56:00,
2013-03-08 05:00:00,45.8,16.1,17.22,West,268,0.0,1.0,30,0.00,,,0.34,VWS V14.01,2013-03-08 13:00:00,
2013-03-08 05:01:00,47.1,19.5,17.22,West,268,0.0,0.0,33,0.00,,,0.34,VWS V14.01,2013-03-08 13:01:00,
2013-03-08 05:06:00,47.1,19.5,17.22,West,268,0.0,0.0,33,0.00,,,0.34,VWS V14.01,2013-03-08 13:06:00,
2013-03-08 05:11:00,47.0,18.7,17.22,West,268,0.0,0.0,32,0.00,,,0.34,VWS V14.01,2013-03-08 13:11:00,
2013-03-08 05:16:00,46.9,18.6,17.22,West,268,0.0,0.0,32,0.00,,,0.34,VWS V14.01,2013-03-08 13:16:00,
2013-03-08 05:21:00,46.8,18.5,17.22,West,268,0.0,1.0,32,0.00,,,0.34,VWS V14.01,2013-03-08 13:21:00,
2013-03-08 05:26:00,46.6,18.3,17.22,West,268,0.0,1.0,32,0.00,,,0.34,VWS V14.01,2013-03-08 13:26:00,
2013-03-08 05:30:00,45.6,14.4,17.22,West,268,0.0,2.0,28,0.00,,,0.34,VWS V14.01,2013-03-08 13:30:00,
2013-03-08 05:31:00,46.5,17.5,17.22,West,268,0.0,0.0,31,0.00,,,0.34,VWS V14.01,2013-03-08 13:31:00,
2013-03-08 05:36:00,46.4,17.4,17.22,West,268,0.0,0.0,31,0.00,,,0.34,VWS V14.01,2013-03-08 13:36:00,
2013-03-08 05:41:00,46.3,17.3,17.22,West,268,0.0,0.0,31,0.00,,,0.34,VWS V14.01,2013-03-08 13:41:00,
2013-03-08 05:45:00,46.2,16.5,17.22,West,268,0.0,0.0,30,0.00,,,0.34,VWS V14.01,2013-03-08 13:45:00,
2013-03-08 05:51:00,46.1,16.4,17.22,West,268,0.0,0.0,30,0.00,,,0.34,VWS V14.01,2013-03-08 13:51:00,
2013-03-08 05:55:00,46.0,16.3,17.22,West,268,0.0,1.0,30,0.00,,,0.34,VWS V14.01,2013-03-08 13:55:00,
2013-03-08 06:00:00,45.8,16.1,17.22,West,268,0.0,0.0,30,0.00,,,0.34,VWS V14.01,2013-03-08 14:00:00,
2013-03-08 06:05:00,45.6,16.0,17.22,West,268,0.0,0.0,30,0.00,,,0.34,VWS V14.01,2013-03-08 14:05:00,
2013-03-08 06:10:00,45.5,15.1,17.22,West,269,0.0,0.0,29,0.00,,,0.34,VWS V14.01,2013-03-08 14:10:00,
2013-03-08 06:15:00,45.5,15.1,17.22,West,268,1.0,2.0,29,0.00,,,0.34,VWS V14.01,2013-03-08 14:15:00,
2013-03-08 06:20:00,45.5,15.1,17.22,West,269,0.0,2.0,29,0.00,,,0.34,VWS V14.01,2013-03-08 14:20:00,
2013-03-08 06:25:00,45.6,15.2,17.22,West,268,0.0,2.0,29,0.00,,,0.34,VWS V14.01,2013-03-08 14:25:00,
2013-03-08 06:30:00,45.6,14.4,17.22,West,268,0.0,0.0,28,0.00,,,0.34,VWS V14.01,2013-03-08 14:30:00,
2013-03-08 06:35:00,45.7,14.5,17.22,West,268,0.0,0.0,28,0.00,,,0.34,VWS V14.01,2013-03-08 14:35:00,
2013-03-08 06:40:00,45.7,14.5,17.22,West,268,0.0,2.0,28,0.00,,,0.34,VWS V14.01,2013-03-08 14:40:00,
2013-03-08 06:45:00,45.7,14.5,17.22,West,268,0.0,2.0,28,0.00,,,0.34,VWS V14.01,2013-03-08 14:45:00,
2013-03-08 06:50:00,45.8,13.7,17.22,West,268,0.0,2.0,27,0.00,,,0.34,VWS V14.01,2013-03-08 14:50:00,
2013-03-08 06:55:00,46.2,14.1,17.22,West,279,0.0,2.0,27,0.00,,,0.34,VWS V14.01,2013-03-08 14:55:00,
2013-03-08 07:00:00,46.7,13.6,17.22,NNW,344,0.0,3.0,26,0.00,,,0.34,VWS V14.01,2013-03-08 15:00:00,
2013-03-08 07:05:00,47.2,14.1,17.22,North,360,1.0,3.0,26,0.00,,,0.34,VWS V14.01,2013-03-08 15:05:00,
2013-03-08 07:10:00,47.4,14.2,17.22,North,360,1.0,3.0,26,0.00,,,0.34,VWS V14.01,2013-03-08 15:10:00,
2013-03-08 07:15:00,47.4,14.2,17.22,North,11,2.0,4.0,26,0.00,,,0.34,VWS V14.01,2013-03-08 15:15:00,
2013-03-08 07:20:00,47.6,14.4,17.22,NE,51,2.0,4.0,26,0.00,,,0.34,VWS V14.01,2013-03-08 15:20:00,
2013-03-08 07:25:00,47.8,14.6,17.22,East,89,1.0,4.0,26,0.00,,,0.34,VWS V14.01,2013-03-08 15:25:00,
2013-03-08 07:30:00,48.1,14.9,17.22,East,81,4.0,4.0,26,0.00,,,0.34,VWS V14.01,2013-03-08 15:30:00,
2013-03-08 07:35:00,48.6,15.3,17.22,ENE,76,1.0,5.0,26,0.00,,,0.34,VWS V14.01,2013-03-08 15:35:00,
2013-03-08 07:40:00,49.0,15.6,17.22,ENE,70,4.0,5.0,26,0.00,,,0.34,VWS V14.01,2013-03-08 15:40:00,
2013-03-08 07:45:00,49.2,16.7,17.22,East,89,3.0,5.0,27,0.00,,,0.34,VWS V14.01,2013-03-08 15:45:00,
2013-03-08 07:50:00,49.6,17.0,17.22,East,79,1.0,5.0,27,0.00,,,0.34,VWS V14.01,2013-03-08 15:50:00,
2013-03-08 07:55:00,50.0,19.0,17.22,ENE,70,5.0,6.0,29,0.00,,,0.34,VWS V14.01,2013-03-08 15:55:00,
2013-03-08 08:00:00,50.1,19.1,17.22,East,82,3.0,3.0,29,0.00,,,0.34,VWS V14.01,2013-03-08 16:00:00,
2013-03-08 08:05:00,50.5,20.2,17.22,East,86,1.0,5.0,30,0.00,,,0.34,VWS V14.01,2013-03-08 16:05:00,
2013-03-08 08:10:00,51.2,21.6,17.22,East,87,1.0,5.0,31,0.00,,,0.34,VWS V14.01,2013-03-08 16:10:00,
2013-03-08 08:15:00,51.5,24.1,17.22,East,86,0.0,5.0,34,0.00,,,0.34,VWS V14.01,2013-03-08 16:15:00,
2013-03-08 08:20:00,51.5,26.1,17.22,ENE,73,1.0,5.0,37,0.00,,,0.34,VWS V14.01,2013-03-08 16:20:00,
2013-03-08 08:25:00,51.7,28.2,17.22,ENE,71,2.0,5.0,40,0.00,,,0.34,VWS V14.01,2013-03-08 16:25:00,
2013-03-08 08:30:00,51.3,29.6,17.22,East,82,2.0,5.0,43,0.00,,,0.34,VWS V14.01,2013-03-08 16:30:00,
2013-03-08 08:35:00,51.1,30.5,17.22,East,81,0.0,5.0,45,0.00,,,0.34,VWS V14.01,2013-03-08 16:35:00,
2013-03-08 08:40:00,51.7,31.1,17.22,East,84,3.0,5.0,45,0.00,,,0.34,VWS V14.01,2013-03-08 16:40:00,
2013-03-08 08:45:00,51.9,32.8,17.22,East,85,1.0,5.0,48,0.00,,,0.34,VWS V14.01,2013-03-08 16:45:00,
2013-03-08 08:50:00,52.7,34.1,17.22,East,85,0.0,5.0,49,0.00,,,0.34,VWS V14.01,2013-03-08 16:50:00,
2013-03-08 08:55:00,53.0,35.4,17.22,SSE,150,6.0,6.0,51,0.00,,,0.34,VWS V14.01,2013-03-08 16:55:00,
2013-03-08 09:00:00,52.4,35.8,17.22,West,272,2.0,6.0,53,0.00,,,0.34,VWS V14.01,2013-03-08 17:00:00,
2013-03-08 09:05:00,52.2,35.6,17.22,NW,307,2.0,6.0,53,0.00,,,0.34,VWS V14.01,2013-03-08 17:05:00,
2013-03-08 09:10:00,52.4,35.8,17.22,SW,232,2.0,6.0,53,0.00,,,0.34,VWS V14.01,2013-03-08 17:10:00,
2013-03-08 09:15:00,52.0,35.9,17.22,WNW,288,2.0,6.0,54,0.00,,,0.34,VWS V14.01,2013-03-08 17:15:00,
2013-03-08 09:20:00,52.0,35.9,17.22,WNW,295,3.0,7.0,54,0.00,,,0.34,VWS V14.01,2013-03-08 17:20:00,
2013-03-08 09:25:00,51.9,35.8,17.22,WNW,284,4.0,7.0,54,0.00,,,0.34,VWS V14.01,2013-03-08 17:25:00,
2013-03-08 09:30:00,52.0,35.9,17.22,West,281,4.0,4.0,54,0.00,,,0.34,VWS V14.01,2013-03-08 17:30:00,
2013-03-08 09:35:00,52.3,36.2,17.22,West,265,2.0,7.0,54,0.00,,,0.34,VWS V14.01,2013-03-08 17:35:00,
2013-03-08 09:40:00,51.9,35.8,17.22,West,261,1.0,7.0,54,0.00,,,0.34,VWS V14.01,2013-03-08 17:40:00,
2013-03-08 09:45:00,52.2,36.1,17.22,WSW,242,3.0,8.0,54,0.00,,,0.34,VWS V14.01,2013-03-08 17:45:00,
2013-03-08 09:50:00,52.8,36.6,17.22,NW,314,0.0,8.0,54,0.00,,,0.34,VWS V14.01,2013-03-08 17:50:00,
2013-03-08 09:55:00,53.2,37.0,17.22,WSW,244,5.0,8.0,54,0.00,,,0.34,VWS V14.01,2013-03-08 17:55:00,
2013-03-08 10:00:00,53.1,36.9,17.22,WSW,248,0.0,7.0,54,0.00,,,0.34,VWS V14.01,2013-03-08 18:00:00,
2013-03-08 10:05:00,54.1,37.8,17.22,SSW,202,6.0,8.0,54,0.00,,,0.34,VWS V14.01,2013-03-08 18:05:00,
2013-03-08 10:10:00,54.2,37.5,17.22,SW,221,6.0,8.0,53,0.00,,,0.34,VWS V14.01,2013-03-08 18:10:00,
2013-03-08 10:15:00,54.2,37.5,17.22,SSW,207,5.0,10.0,53,0.00,,,0.34,VWS V14.01,2013-03-08 18:15:00,
2013-03-08 10:20:00,53.9,37.7,17.22,SW,232,5.0,10.0,54,0.00,,,0.34,VWS V14.01,2013-03-08 18:20:00,
2013-03-08 10:25:00,54.5,37.2,17.22,SSW,211,1.0,10.0,52,0.00,,,0.34,VWS V14.01,2013-03-08 18:25:00,
2013-03-08 10:30:00,54.2,37.9,17.22,SW,227,6.0,6.0,54,0.00,,,0.34,VWS V14.01,2013-03-08 18:30:00,
2013-03-08 10:35:00,53.4,37.7,17.22,WSW,252,5.0,10.0,55,0.00,,,0.34,VWS V14.01,2013-03-08 18:35:00,
2013-03-08 10:40:00,53.3,38.0,17.22,West,260,3.0,10.0,56,0.00,,,0.34,VWS V14.01,2013-03-08 18:40:00,
2013-03-08 10:45:00,54.0,38.2,17.22,SSW,210,7.0,10.0,55,0.00,,,0.34,VWS V14.01,2013-03-08 18:45:00,
2013-03-08 10:50:00,53.6,37.8,17.22,WSW,254,5.0,10.0,55,0.00,,,0.34,VWS V14.01,2013-03-08 18:50:00,
2013-03-08 10:55:00,53.4,37.7,17.22,WSW,241,7.0,10.0,55,0.00,,,0.34,VWS V14.01,2013-03-08 18:55:00,
2013-03-08 11:00:00,53.5,37.8,17.22,WSW,248,2.0,6.0,55,0.00,,,0.34,VWS V14.01,2013-03-08 19:00:00,
2013-03-08 11:05:00,54.2,38.4,17.22,WSW,246,5.0,7.0,55,0.00,,,0.34,VWS V14.01,2013-03-08 19:05:00,
2013-03-08 11:10:00,54.2,37.9,17.22,WSW,241,7.0,12.0,54,0.00,,,0.34,VWS V14.01,2013-03-08 19:10:00,
2013-03-08 11:15:00,54.1,37.8,17.22,WNW,287,5.0,12.0,54,0.00,,,0.34,VWS V14.01,2013-03-08 19:15:00,
2013-03-08 11:20:00,53.9,37.7,17.22,WSW,257,4.0,12.0,54,0.00,,,0.34,VWS V14.01,2013-03-08 19:20:00,
2013-03-08 11:25:00,53.9,37.7,17.22,West,262,3.0,12.0,54,0.00,,,0.34,VWS V14.01,2013-03-08 19:25:00,
2013-03-08 11:30:00,54.3,38.0,17.22,SW,232,3.0,11.0,54,0.00,,,0.34,VWS V14.01,2013-03-08 19:30:00,
2013-03-08 11:35:00,54.6,38.3,17.22,WSW,244,2.0,11.0,54,0.00,,,0.34,VWS V14.01,2013-03-08 19:35:00,
2013-03-08 11:40:00,54.9,38.1,17.22,West,262,4.0,11.0,53,0.00,,,0.34,VWS V14.01,2013-03-08 19:40:00,
2013-03-08 11:45:00,54.6,37.8,17.22,WSW,257,1.0,12.0,53,0.00,,,0.34,VWS V14.01,2013-03-08 19:45:00,
2013-03-08 11:50:00,54.6,37.8,17.22,SW,215,4.0,12.0,53,0.00,,,0.34,VWS V14.01,2013-03-08 19:50:00,
2013-03-08 11:55:00,54.8,38.0,17.22,WSW,252,3.0,12.0,53,0.00,,,0.34,VWS V14.01,2013-03-08 19:55:00,
2013-03-08 12:00:00,54.9,38.1,17.22,SW,236,3.0,5.0,53,0.00,,,0.34,VWS V14.01,2013-03-08 20:00:00,
2013-03-08 12:05:00,55.3,38.5,17.22,SSW,210,3.0,10.0,53,0.00,,,0.34,VWS V14.01,2013-03-08 20:05:00,
2013-03-08 12:10:00,55.1,38.3,17.22,West,262,2.0,12.0,53,0.00,,,0.34,VWS V14.01,2013-03-08 20:10:00,
2013-03-08 12:15:00,55.3,38.5,17.22,SW,215,8.0,12.0,53,0.00,,,0.34,VWS V14.01,2013-03-08 20:15:00,
2013-03-08 12:20:00,55.1,38.3,17.22,WSW,247,3.0,12.0,53,0.00,,,0.34,VWS V14.01,2013-03-08 20:20:00,
2013-03-08 12:25:00,55.6,38.8,17.22,SW,223,9.0,12.0,53,0.00,,,0.34,VWS V14.01,2013-03-08 20:25:00,
2013-03-08 12:30:00,55.9,39.5,17.22,SW,225,6.0,8.0,54,0.00,,,0.34,VWS V14.01,2013-03-08 20:30:00,
2013-03-08 12:35:00,56.0,39.1,17.22,WSW,242,7.0,13.0,53,0.00,,,0.34,VWS V14.01,2013-03-08 20:35:00,
2013-03-08 12:40:00,56.5,39.6,17.22,South,189,3.0,13.0,53,0.00,,,0.34,VWS V14.01,2013-03-08 20:40:00,
2013-03-08 12:45:00,56.6,39.7,17.22,WSW,253,5.0,16.0,53,0.00,,,0.34,VWS V14.01,2013-03-08 20:45:00,
2013-03-08 12:50:00,56.9,39.5,17.22,SW,216,6.0,16.0,52,0.00,,,0.34,VWS V14.01,2013-03-08 20:50:00,
2013-03-08 12:55:00,56.0,39.1,17.22,SW,223,6.0,16.0,53,0.00,,,0.34,VWS V14.01,2013-03-08 20:55:00,
2013-03-08 13:00:00,56.1,39.7,17.22,SW,218,2.0,10.0,54,0.00,,,0.34,VWS V14.01,2013-03-08 21:00:00,
2013-03-08 13:05:00,56.7,39.8,17.22,WSW,255,4.0,14.0,53,0.00,,,0.34,VWS V14.01,2013-03-08 21:05:00,
2013-03-08 13:10:00,57.2,40.2,17.22,WSW,254,5.0,14.0,53,0.00,,,0.34,VWS V14.01,2013-03-08 21:10:00,
2013-03-08 13:15:00,56.9,40.0,17.22,West,265,2.0,14.0,53,0.00,,,0.34,VWS V14.01,2013-03-08 21:15:00,
2013-03-08 13:20:00,57.6,40.6,17.22,WSW,248,6.0,14.0,53,0.00,,,0.34,VWS V14.01,2013-03-08 21:20:00,
2013-03-08 13:25:00,57.4,40.4,17.22,SSW,200,10.0,15.0,53,0.00,,,0.34,VWS V14.01,2013-03-08 21:25:00,
2013-03-08 13:30:00,56.2,40.3,17.22,SW,227,5.0,13.0,55,0.00,,,0.34,VWS V14.01,2013-03-08 21:30:00,
2013-03-08 13:35:00,56.3,40.4,17.22,West,267,3.0,16.0,55,0.00,,,0.34,VWS V14.01,2013-03-08 21:35:00,
2013-03-08 13:40:00,56.3,40.4,17.22,WNW,286,5.0,16.0,55,0.00,,,0.34,VWS V14.01,2013-03-08 21:40:00,
2013-03-08 13:45:00,56.9,40.9,17.22,WNW,297,7.0,16.0,55,0.00,,,0.34,VWS V14.01,2013-03-08 21:45:00,
2013-03-08 13:50:00,57.5,41.0,17.22,WSW,248,6.0,16.0,54,0.00,,,0.34,VWS V14.01,2013-03-08 21:50:00,
2013-03-08 13:55:00,57.9,40.9,17.22,NW,310,4.0,16.0,53,0.00,,,0.34,VWS V14.01,2013-03-08 21:55:00,
2013-03-08 14:00:00,57.6,41.1,17.22,West,279,11.0,15.0,54,0.00,,,0.34,VWS V14.01,2013-03-08 22:00:00,
2013-03-08 14:05:00,57.0,41.0,17.22,SSW,193,8.0,15.0,55,0.00,,,0.34,VWS V14.01,2013-03-08 22:05:00,
2013-03-08 14:10:00,56.0,40.5,17.22,WSW,242,9.0,15.0,56,0.00,,,0.34,VWS V14.01,2013-03-08 22:10:00,
2013-03-08 14:15:00,56.0,40.5,17.22,SSW,213,9.0,15.0,56,0.00,,,0.34,VWS V14.01,2013-03-08 22:15:00,
2013-03-08 14:20:00,56.2,40.7,17.22,WSW,242,6.0,15.0,56,0.00,,,0.34,VWS V14.01,2013-03-08 22:20:00,
2013-03-08 14:25:00,57.1,41.1,17.22,SW,236,0.0,15.0,55,0.00,,,0.34,VWS V14.01,2013-03-08 22:25:00,
2013-03-08 14:30:00,57.0,41.0,17.22,SW,229,6.0,11.0,55,0.00,,,0.34,VWS V14.01,2013-03-08 22:30:00,
2013-03-08 14:35:00,56.3,40.4,17.22,SW,229,15.0,15.0,55,0.00,,,0.34,VWS V14.01,2013-03-08 22:35:00,
2013-03-08 14:40:00,55.8,39.9,17.22,WSW,246,7.0,15.0,55,0.00,,,0.34,VWS V14.01,2013-03-08 22:40:00,
2013-03-08 14:45:00,56.8,40.8,17.22,WSW,254,6.0,15.0,55,0.00,,,0.34,VWS V14.01,2013-03-08 22:45:00,
2013-03-08 14:50:00,57.8,41.3,17.22,West,263,6.0,15.0,54,0.00,,,0.34,VWS V14.01,2013-03-08 22:50:00,
2013-03-08 14:55:00,57.4,40.9,17.22,NW,311,5.0,15.0,54,0.00,,,0.34,VWS V14.01,2013-03-08 22:55:00,
2013-03-08 15:00:00,57.1,41.1,17.22,SSW,205,8.0,10.0,55,0.00,,,0.34,VWS V14.01,2013-03-08 23:00:00,
2013-03-08 15:05:00,57.4,40.9,17.22,West,264,11.0,14.0,54,0.00,,,0.34,VWS V14.01,2013-03-08 23:05:00,
2013-03-08 15:10:00,57.9,41.4,17.22,West,279,11.0,15.0,54,0.00,,,0.34,VWS V14.01,2013-03-08 23:10:00,
2013-03-08 15:15:00,57.8,41.3,17.22,WSW,249,5.0,15.0,54,0.00,,,0.34,VWS V14.01,2013-03-08 23:15:00,
2013-03-08 15:20:00,57.4,40.9,17.22,West,272,6.0,15.0,54,0.00,,,0.34,VWS V14.01,2013-03-08 23:20:00,
2013-03-08 15:25:00,56.7,40.7,17.22,WNW,292,5.0,15.0,55,0.00,,,0.34,VWS V14.01,2013-03-08 23:25:00,
2013-03-08 15:30:00,57.5,41.0,17.22,WNW,300,6.0,12.0,54,0.00,,,0.34,VWS V14.01,2013-03-08 23:30:00,
2013-03-08 15:35:00,58.2,41.7,17.22,WNW,286,4.0,14.0,54,0.00,,,0.34,VWS V14.01,2013-03-08 23:35:00,
2013-03-08 15:40:00,58.1,41.1,17.22,WSW,246,4.0,16.0,53,0.00,,,0.34,VWS V14.01,2013-03-08 23:40:00,
2013-03-08 15:45:00,56.9,40.9,17.22,NW,306,9.0,16.0,55,0.00,,,0.34,VWS V14.01,2013-03-08 23:45:00,
2013-03-08 15:50:00,56.4,40.5,17.22,WSW,244,9.0,16.0,55,0.00,,,0.34,VWS V14.01,2013-03-08 23:50:00,
2013-03-08 15:55:00,56.4,40.5,17.22,SW,221,11.0,16.0,55,0.00,,,0.34,VWS V14.01,2013-03-08 23:55:00,
2013-03-08 16:00:00,56.1,39.7,17.22,SSW,207,5.0,11.0,54,0.00,,,0.34,VWS V14.01,2013-03-09 00:00:00,
2013-03-08 16:05:00,56.6,39.7,17.22,West,281,6.0,15.0,53,0.00,,,0.34,VWS V14.01,2013-03-09 00:05:00,
2013-03-08 16:10:00,56.8,39.9,17.22,West,266,8.0,15.0,53,0.00,,,0.34,VWS V14.01,2013-03-09 00:10:00,
2013-03-08 16:15:00,56.9,40.0,17.22,West,261,7.0,16.0,53,0.00,,,0.34,VWS V14.01,2013-03-09 00:15:00,
2013-03-08 16:20:00,56.9,40.0,17.22,WSW,253,7.0,17.0,53,0.00,,,0.34,VWS V14.01,2013-03-09 00:20:00,
2013-03-08 16:25:00,57.0,40.1,17.22,West,272,9.0,17.0,53,0.00,,,0.34,VWS V14.01,2013-03-09 00:25:00,
2013-03-08 16:30:00,57.2,40.2,17.22,West,274,6.0,11.0,53,0.00,,,0.34,VWS V14.01,2013-03-09 00:30:00,
2013-03-08 16:35:00,57.4,40.4,17.22,SW,221,6.0,12.0,53,0.00,,,0.34,VWS V14.01,2013-03-09 00:35:00,
2013-03-08 16:40:00,57.1,40.2,17.22,WSW,247,9.0,15.0,53,0.00,,,0.34,VWS V14.01,2013-03-09 00:40:00,
2013-03-08 16:45:00,56.8,39.9,17.22,WSW,252,6.0,16.0,53,0.00,,,0.34,VWS V14.01,2013-03-09 00:45:00,
2013-03-08 16:50:00,56.7,39.8,17.22,NW,304,1.0,16.0,53,0.00,,,0.34,VWS V14.01,2013-03-09 00:50:00,
2013-03-08 16:55:00,56.9,40.0,17.22,NW,305,6.0,16.0,53,0.00,,,0.34,VWS V14.01,2013-03-09 00:55:00,
2013-03-08 17:00:00,57.0,40.1,17.22,WNW,293,4.0,9.0,53,0.00,,,0.34,VWS V14.01,2013-03-09 01:00:00,
2013-03-08 17:05:00,57.3,40.3,17.22,WNW,283,6.0,14.0,53,0.00,,,0.34,VWS V14.01,2013-03-09 01:05:00,
2013-03-08 17:10:00,57.4,40.4,17.22,NNW,328,6.0,14.0,53,0.00,,,0.34,VWS V14.01,2013-03-09 01:10:00,
2013-03-08 17:15:00,57.0,40.5,17.22,WNW,289,8.0,14.0,54,0.00,,,0.34,VWS V14.01,2013-03-09 01:15:00,
2013-03-08 17:20:00,56.8,40.3,17.22,West,275,4.0,14.0,54,0.00,,,0.34,VWS V14.01,2013-03-09 01:20:00,
2013-03-08 17:25:00,56.5,40.1,17.22,West,280,3.0,14.0,54,0.00,,,0.34,VWS V14.01,2013-03-09 01:25:00,
2013-03-08 17:30:00,56.3,39.9,17.22,West,267,6.0,13.0,54,0.00,,,0.34,VWS V14.01,2013-03-09 01:30:00,
2013-03-08 17:35:00,56.2,39.8,17.22,West,263,3.0,13.0,54,0.00,,,0.34,VWS V14.01,2013-03-09 01:35:00,
2013-03-08 17:40:00,56.1,39.7,17.22,West,263,4.0,16.0,54,0.00,,,0.34,VWS V14.01,2013-03-09 01:40:00,
2013-03-08 17:45:00,56.0,39.6,17.22,NNW,332,3.0,16.0,54,0.00,,,0.34,VWS V14.01,2013-03-09 01:45:00,
2013-03-08 17:50:00,55.9,39.5,17.22,WNW,286,2.0,16.0,54,0.00,,,0.34,VWS V14.01,2013-03-09 01:50:00,
2013-03-08 17:55:00,55.9,39.5,17.22,West,263,4.0,16.0,54,0.00,,,0.34,VWS V14.01,2013-03-09 01:55:00,
2013-03-08 18:00:00,55.8,39.4,17.22,WNW,286,4.0,8.0,54,0.00,,,0.34,VWS V14.01,2013-03-09 02:00:00,
2013-03-08 18:05:00,55.8,39.4,17.22,WNW,293,2.0,9.0,54,0.00,,,0.34,VWS V14.01,2013-03-09 02:05:00,
2013-03-08 18:10:00,55.7,39.3,17.22,NW,304,4.0,9.0,54,0.00,,,0.34,VWS V14.01,2013-03-09 02:10:00,
2013-03-08 18:15:00,55.8,38.9,17.22,West,275,7.0,9.0,53,0.00,,,0.34,VWS V14.01,2013-03-09 02:15:00,
2013-03-08 18:20:00,55.9,39.5,17.22,WNW,303,4.0,11.0,54,0.00,,,0.34,VWS V14.01,2013-03-09 02:20:00,
2013-03-08 18:25:00,56.1,39.7,17.22,WSW,239,5.0,14.0,54,0.00,,,0.34,VWS V14.01,2013-03-09 02:25:00,
2013-03-08 18:30:00,56.1,39.7,17.22,WNW,286,4.0,12.0,54,0.00,,,0.34,VWS V14.01,2013-03-09 02:30:00,
2013-03-08 18:35:00,56.0,39.6,17.22,WNW,296,3.0,12.0,54,0.00,,,0.34,VWS V14.01,2013-03-09 02:35:00,
2013-03-08 18:40:00,55.9,39.5,17.22,NW,317,10.0,13.0,54,0.00,,,0.34,VWS V14.01,2013-03-09 02:40:00,
2013-03-08 18:45:00,55.7,39.3,17.22,WNW,282,3.0,13.0,54,0.00,,,0.34,VWS V14.01,2013-03-09 02:45:00,
2013-03-08 18:50:00,55.5,39.6,17.22,NW,304,2.0,13.0,55,0.00,,,0.34,VWS V14.01,2013-03-09 02:50:00,
2013-03-08 18:55:00,55.3,39.4,17.22,West,261,1.0,14.0,55,0.00,,,0.34,VWS V14.01,2013-03-09 02:55:00,
2013-03-08 19:00:00,55.2,39.3,17.22,WNW,293,4.0,6.0,55,0.00,,,0.34,VWS V14.01,2013-03-09 03:00:00,
2013-03-08 19:05:00,55.2,39.3,17.22,North,350,1.0,13.0,55,0.00,,,0.34,VWS V14.01,2013-03-09 03:05:00,
2013-03-08 19:10:00,55.2,39.3,17.22,West,273,2.0,13.0,55,0.00,,,0.34,VWS V14.01,2013-03-09 03:10:00,
2013-03-08 19:15:00,55.1,39.2,17.22,West,262,6.0,13.0,55,0.00,,,0.34,VWS V14.01,2013-03-09 03:15:00,
2013-03-08 19:20:00,55.0,39.2,17.22,West,264,5.0,13.0,55,0.00,,,0.34,VWS V14.01,2013-03-09 03:20:00,
2013-03-08 19:25:00,54.9,39.0,17.22,WNW,286,4.0,13.0,55,0.00,,,0.34,VWS V14.01,2013-03-09 03:25:00,
2013-03-08 19:30:00,54.8,39.0,17.22,West,271,5.0,11.0,55,0.00,,,0.34,VWS V14.01,2013-03-09 03:30:00,
2013-03-08 19:35:00,54.7,38.9,17.22,WNW,296,4.0,12.0,55,0.00,,,0.34,VWS V14.01,2013-03-09 03:35:00,
2013-03-08 19:40:00,54.7,38.9,17.22,WNW,287,2.0,12.0,55,0.00,,,0.34,VWS V14.01,2013-03-09 03:40:00,
2013-03-08 19:45:00,54.6,38.8,17.22,NW,305,4.0,12.0,55,0.00,,,0.34,VWS V14.01,2013-03-09 03:45:00,
2013-03-08 19:50:00,54.6,38.8,17.22,WNW,302,1.0,12.0,55,0.00,,,0.34,VWS V14.01,2013-03-09 03:50:00,
2013-03-08 19:55:00,54.6,38.8,17.22,NNW,331,7.0,12.0,55,0.00,,,0.34,VWS V14.01,2013-03-09 03:55:00,
2013-03-08 20:00:00,54.5,38.7,17.22,WNW,302,2.0,9.0,55,0.00,,,0.34,VWS V14.01,2013-03-09 04:00:00,
2013-03-08 20:05:00,54.3,38.5,17.22,WNW,289,9.0,12.0,55,0.00,,,0.34,VWS V14.01,2013-03-09 04:05:00,
2013-03-08 20:10:00,54.1,38.3,17.22,NW,315,8.0,12.0,55,0.00,,,0.34,VWS V14.01,2013-03-09 04:10:00,
2013-03-08 20:15:00,54.0,38.2,17.22,WNW,296,5.0,12.0,55,0.00,,,0.34,VWS V14.01,2013-03-09 04:15:00,
2013-03-08 20:20:00,53.9,38.1,17.22,WNW,298,2.0,12.0,55,0.00,,,0.34,VWS V14.01,2013-03-09 04:20:00,
2013-03-08 20:25:00,53.8,38.0,17.22,WNW,295,2.0,12.0,55,0.00,,,0.34,VWS V14.01,2013-03-09 04:25:00,
2013-03-08 20:30:00,53.7,37.9,17.22,West,263,2.0,11.0,55,0.00,,,0.34,VWS V14.01,2013-03-09 04:30:00,
2013-03-08 20:35:00,53.6,37.8,17.22,WNW,302,2.0,12.0,55,0.00,,,0.34,VWS V14.01,2013-03-09 04:35:00,
2013-03-08 20:40:00,53.5,37.8,17.22,WSW,248,5.0,12.0,55,0.00,,,0.34,VWS V14.01,2013-03-09 04:40:00,
2013-03-08 20:45:00,53.5,37.8,17.22,NW,320,4.0,12.0,55,0.00,,,0.34,VWS V14.01,2013-03-09 04:45:00,
2013-03-08 20:50:00,53.6,37.8,17.22,West,269,2.0,12.0,55,0.00,,,0.34,VWS V14.01,2013-03-09 04:50:00,
2013-03-08 20:55:00,53.6,37.8,17.22,NNW,340,4.0,12.0,55,0.00,,,0.34,VWS V14.01,2013-03-09 04:55:00,
2013-03-08 21:00:00,53.7,37.9,17.22,NW,320,5.0,6.0,55,0.00,,,0.34,VWS V14.01,2013-03-09 05:00:00,
2013-03-08 21:05:00,53.9,38.1,17.22,West,265,3.0,12.0,55,0.00,,,0.34,VWS V14.01,2013-03-09 05:05:00,
2013-03-08 21:10:00,53.9,38.1,17.22,WNW,298,4.0,12.0,55,0.00,,,0.34,VWS V14.01,2013-03-09 05:10:00,
2013-03-08 21:15:00,53.9,38.1,17.22,WNW,302,5.0,13.0,55,0.00,,,0.34,VWS V14.01,2013-03-09 05:15:00,
2013-03-08 21:20:00,53.8,38.0,17.22,WNW,298,8.0,14.0,55,0.00,,,0.34,VWS V14.01,2013-03-09 05:20:00,
2013-03-08 21:25:00,53.7,37.9,17.22,WNW,295,4.0,14.0,55,0.00,,,0.34,VWS V14.01,2013-03-09 05:25:00,
2013-03-08 21:30:00,53.7,37.9,17.22,WNW,303,5.0,8.0,55,0.00,,,0.34,VWS V14.01,2013-03-09 05:30:00,
2013-03-08 21:35:00,53.7,37.9,17.22,WNW,302,3.0,15.0,55,0.00,,,0.34,VWS V14.01,2013-03-09 05:35:00,
2013-03-08 21:40:00,53.7,37.9,17.22,WNW,282,3.0,16.0,55,0.00,,,0.34,VWS V14.01,2013-03-09 05:40:00,
2013-03-08 21:45:00,53.6,37.8,17.22,WNW,285,4.0,16.0,55,0.00,,,0.34,VWS V14.01,2013-03-09 05:45:00,
2013-03-08 21:50:00,53.5,38.2,23.14,NW,321,2.0,16.0,56,0.00,,,0.34,VWS V14.01,2013-03-09 05:50:00,
2013-03-08 21:55:00,53.3,38.0,23.14,WNW,292,3.0,16.0,56,0.00,,,0.34,VWS V14.01,2013-03-09 05:55:00,
2013-03-08 22:00:00,53.2,37.9,23.14,WNW,300,4.0,9.0,56,0.00,,,0.34,VWS V14.01,2013-03-09 06:00:00,
2013-03-08 22:05:00,53.1,37.8,23.14,NNW,329,8.0,15.0,56,0.00,,,0.34,VWS V14.01,2013-03-09 06:05:00,
2013-03-08 22:10:00,53.0,37.7,23.14,WNW,283,5.0,15.0,56,0.00,,,0.34,VWS V14.01,2013-03-09 06:10:00,
2013-03-08 22:15:00,52.9,37.7,23.14,West,271,11.0,15.0,56,0.00,,,0.34,VWS V14.01,2013-03-09 06:15:00,
2013-03-08 22:20:00,52.8,37.5,23.14,WSW,249,6.0,17.0,56,0.00,,,0.34,VWS V14.01,2013-03-09 06:20:00,
2013-03-08 22:25:00,52.7,37.5,23.14,South,178,2.0,17.0,56,0.00,,,0.34,VWS V14.01,2013-03-09 06:25:00,
2013-03-08 22:30:00,52.7,37.5,23.14,WNW,295,3.0,4.0,56,0.00,,,0.34,VWS V14.01,2013-03-09 06:30:00,
2013-03-08 22:35:00,52.6,37.4,23.14,NW,320,0.0,5.0,56,0.00,,,0.34,VWS V14.01,2013-03-09 06:35:00,
2013-03-08 22:40:00,52.5,37.3,23.14,NW,315,0.0,5.0,56,0.00,,,0.34,VWS V14.01,2013-03-09 06:40:00,
2013-03-08 22:45:00,52.4,37.2,23.14,West,267,1.0,5.0,56,0.00,,,0.34,VWS V14.01,2013-03-09 06:45:00,
2013-03-08 22:50:00,52.4,37.2,23.14,NW,325,0.0,5.0,56,0.00,,,0.34,VWS V14.01,2013-03-09 06:50:00,
2013-03-08 22:55:00,52.4,37.2,23.14,West,270,3.0,9.0,56,0.00,,,0.34,VWS V14.01,2013-03-09 06:55:00,
2013-03-08 23:00:00,52.4,37.2,23.14,West,272,7.0,9.0,56,0.00,,,0.34,VWS V14.01,2013-03-09 07:00:00,
2013-03-08 23:05:00,52.3,37.1,23.14,WNW,298,0.0,11.0,56,0.00,,,0.34,VWS V14.01,2013-03-09 07:05:00,
2013-03-08 23:10:00,52.2,36.5,23.14,WNW,295,3.0,11.0,55,0.00,,,0.34,VWS V14.01,2013-03-09 07:10:00,
2013-03-08 23:15:00,52.1,36.4,23.14,WNW,290,3.0,11.0,55,0.00,,,0.34,VWS V14.01,2013-03-09 07:15:00,
2013-03-08 23:20:00,52.0,36.3,23.14,WNW,296,2.0,11.0,55,0.00,,,0.34,VWS V14.01,2013-03-09 07:20:00,
2013-03-08 23:25:00,52.0,36.3,23.14,NW,310,4.0,11.0,55,0.00,,,0.34,VWS V14.01,2013-03-09 07:25:00,
2013-03-08 23:30:00,51.9,36.7,23.14,West,275,4.0,10.0,56,0.00,,,0.34,VWS V14.01,2013-03-09 07:30:00,
2013-03-08 23:35:00,51.8,36.6,23.14,NW,304,4.0,10.0,56,0.00,,,0.34,VWS V14.01,2013-03-09 07:35:00,
2013-03-08 23:40:00,51.7,36.1,23.14,WNW,297,2.0,10.0,55,0.00,,,0.34,VWS V14.01,2013-03-09 07:40:00,
2013-03-08 23:45:00,51.5,35.9,23.14,NW,318,7.0,10.0,55,0.00,,,0.34,VWS V14.01,2013-03-09 07:45:00,
2013-03-08 23:50:00,51.6,36.0,23.14,NNW,330,5.0,10.0,55,0.00,,,0.34,VWS V14.01,2013-03-09 07:50:00,
2013-03-08 23:55:00,51.5,35.9,23.14,West,279,4.0,10.0,55,0.00,,,0.34,VWS V14.01,2013-03-09 07:55:00,